Location: Vancouver
(49.2500°N, 123.1330°W)
Time: 13:42:19
(UTC-07:00)

ISS - Visible Passes

Search period start: 23 May 2017 00:00
Search period end: 02 June 2017 00:00
Orbit: 402 x 409 km, 51.6° (Epoch: 24 May)

Date Brightness Start Highest point End Pass type
(mag) Time Alt. Az. Time Alt. Az. Time Alt. Az.
23 May -3.1 01:30:38 10° W 01:33:53 55° N 01:37:07 10° ENE visible
23 May -3.7 03:07:18 10° WNW 03:10:36 75° NNE 03:13:52 10° ESE visible
23 May -3.6 23:02:09 10° SW 23:05:18 44° SSE 23:08:28 10° ENE visible
24 May -3.4 00:38:29 10° W 00:41:46 62° N 00:45:02 10° ENE visible
24 May -3.3 02:15:13 10° WNW 02:18:30 61° N 02:21:45 10° E visible
24 May -3.6 03:51:48 10° WNW 03:54:59 47° SSW 03:58:08 10° SE visible
24 May -2.9 22:10:29 10° SSW 22:13:22 28° SE 22:16:15 10° E visible
24 May -3.7 23:46:21 10° WSW 23:49:39 78° NNW 23:52:57 10° ENE visible
25 May -3.1 01:23:06 10° WNW 01:26:21 54° N 01:29:36 10° E visible
25 May -4.0 02:59:41 10° WNW 03:02:58 72° SSW 03:06:14 10° ESE visible
25 May -2.2 04:36:54 10° W 04:39:01 16° SW 04:41:07 10° S visible
25 May -4.0 22:54:17 10° WSW 22:57:34 78° SSE 23:00:53 10° ENE visible
26 May -3.1 00:30:57 10° W 00:34:12 54° N 00:37:27 10° ENE visible
26 May -3.8 02:07:35 10° WNW 02:10:53 82° NNE 02:14:11 10° ESE visible
26 May -2.8 03:44:22 10° W 03:47:08 25° SW 03:49:55 10° SSE visible
26 May -3.7 22:02:19 10° SW 22:05:31 52° SSE 22:08:45 10° ENE visible
26 May -3.2 23:38:46 10° W 23:42:03 59° N 23:45:18 10° ENE visible
27 May -3.5 01:15:29 10° WNW 01:18:46 65° NNE 01:22:03 10° E visible
27 May -3.5 02:52:05 10° WNW 02:55:12 40° SSW 02:55:16 40° SSW visible
27 May -3.5 22:46:35 10° W 22:49:53 71° NNW 22:53:11 10° ENE visible
28 May -3.2 00:23:21 10° WNW 00:26:37 56° N 00:29:51 10° E visible
28 May -3.5 01:59:54 10° WNW 02:02:36 50° WSW 02:02:36 50° WSW visible
28 May -3.8 21:54:27 10° WSW 21:57:45 88° SSE 22:01:04 10° ENE visible
28 May -3.0 23:31:09 10° W 23:34:25 53° N 23:37:40 10° E visible
29 May -4.0 01:07:46 10° WNW 01:11:05 89° SSW 01:11:24 70° ESE visible
29 May -3.1 22:38:57 10° W 22:42:13 56° N 22:45:28 10° ENE visible
30 May -3.6 00:15:38 10° WNW 00:18:56 70° NNE 00:20:34 27° E visible
30 May -1.7 01:52:16 10° W 01:53:11 16° W 01:53:11 16° W visible
30 May -3.3 21:46:43 10° W 21:50:01 65° NNW 21:53:18 10° ENE visible
30 May -3.3 23:23:28 10° WNW 23:26:44 59° N 23:29:52 11° E visible
31 May -3.1 01:00:01 10° WNW 01:02:28 41° WSW 01:02:28 41° WSW visible
31 May -3.1 22:31:16 10° WNW 22:34:31 54° N 22:37:45 10° E visible
01 Jun -4.0 00:07:50 10° WNW 00:11:09 79° SSW 00:11:52 51° SE visible
01 Jun -3.7 23:15:40 10° WNW 23:18:58 77° NNE 23:21:17 18° ESE visible
